| time (UTC) | temp C | wind direction | speed KPH | gust KPH | rain 1hr cm | rain 24hr cm | rain mn cm | humidity % | barometer mb |
| 20260509135100 | 22 | 335 | 8.0 | 12.9 | 0.00 | 0.23 | 0.00 | 84 | 1010.7 |
| 20260509134628 | 22 | 306 | 6.4 | 11.3 | 0.00 | 0.23 | 0.00 | 84 | 1010.6 |
| 20260509134103 | 22 | 290 | 6.4 | 9.7 | 0.00 | 0.23 | 0.00 | 85 | 1010.5 |
| 20260509133600 | 22 | 318 | 6.4 | 12.9 | 0.00 | 0.23 | 0.00 | 86 | 1010.5 |
| 20260509133100 | 21 | 303 | 8.0 | 12.9 | 0.00 | 0.23 | 0.00 | 86 | 1010.4 |
| 20260509132601 | 21 | 304 | 8.0 | 11.3 | 0.00 | 0.23 | 0.00 | 86 | 1010.4 |
| 20260509132101 | 21 | 325 | 4.8 | 11.3 | 0.00 | 0.23 | 0.00 | 87 | 1010.4 |
| 20260509131559 | 21 | 331 | 8.0 | 11.3 | 0.00 | 0.23 | 0.00 | 87 | 1010.6 |
| 20260509131100 | 21 | 312 | 8.0 | 11.3 | 0.00 | 0.23 | 0.00 | 87 | 1010.5 |
| 20260509130604 | 21 | 308 | 3.2 | 6.4 | 0.00 | 0.23 | 0.00 | 88 | 1010.6 |
| 20260509130107 | 20 | 311 | 3.2 | 9.7 | 0.00 | 0.23 | 0.00 | 89 | 1010.6 |
| 20260509125600 | 20 | 287 | 6.4 | 11.3 | 0.00 | 0.23 | 0.00 | 89 | 1010.6 |
| 20260509125100 | 20 | 295 | 6.4 | 11.3 | 0.00 | 0.23 | 0.00 | 89 | 1010.6 |
| 20260509124602 | 20 | 330 | 6.4 | 9.7 | 0.00 | 0.23 | 0.00 | 90 | 1010.6 |
| 20260509124101 | 20 | 280 | 6.4 | 9.7 | 0.00 | 0.23 | 0.00 | 90 | 1010.6 |
| 20260509123604 | 20 | 309 | 6.4 | 9.7 | 0.00 | 0.23 | 0.00 | 90 | 1010.4 |
| 20260509123101 | 20 | 309 | 6.4 | 9.7 | 0.00 | 0.23 | 0.00 | 90 | 1010.4 |
| 20260509122559 | 19 | 299 | 6.4 | 9.7 | 0.00 | 0.23 | 0.00 | 90 | 1010.6 |
| 20260509122100 | 19 | 283 | 6.4 | 9.7 | 0.00 | 0.23 | 0.00 | 91 | 1010.4 |
| 20260509121601 | 19 | 302 | 8.0 | 9.7 | 0.00 | 0.23 | 0.00 | 91 | 1010.4 |
| 20260509121104 | 19 | 301 | 4.8 | 9.7 | 0.00 | 0.23 | 0.00 | 91 | 1010.4 |
| 20260509120601 | 19 | 290 | 4.8 | 11.3 | 0.00 | 0.23 | 0.00 | 91 | 1010.4 |
| 20260509120101 | 19 | 311 | 4.8 | 14.5 | 0.00 | 0.23 | 0.00 | 91 | 1010.4 |
| 20260509115600 | 19 | 287 | 8.0 | 14.5 | 0.00 | 0.23 | 0.00 | 91 | 1010.3 |
| 20260509115100 | 19 | 308 | 6.4 | 11.3 | 0.00 | 0.23 | 0.00 | 91 | 1010.2 |
| 20260509114601 | 19 | 299 | 6.4 | 11.3 | 0.00 | 0.23 | 0.00 | 91 | 1010.0 |
| 20260509114059 | 19 | 295 | 6.4 | 12.9 | 0.00 | 0.23 | 0.00 | 91 | 1010.0 |
| 20260509113600 | 19 | 9 | 8.0 | 14.5 | 0.00 | 0.23 | 0.00 | 91 | 1010.1 |
| 20260509113100 | 19 | 302 | 9.7 | 14.5 | 0.00 | 0.23 | 0.00 | 91 | 1009.7 |
| 20260509112559 | 19 | 311 | 6.4 | 12.9 | 0.00 | 0.23 | 0.00 | 91 | 1009.6 |
| 20260509112059 | 19 | 289 | 8.0 | 12.9 | 0.00 | 0.23 | 0.00 | 91 | 1009.7 |
| 20260509111559 | 19 | 314 | 8.0 | 11.3 | 0.00 | 0.23 | 0.00 | 91 | 1009.3 |
| 20260509111059 | 19 | 294 | 8.0 | 11.3 | 0.00 | 0.23 | 0.00 | 91 | 1009.4 |
| 20260509110602 | 19 | 288 | 4.8 | 9.7 | 0.00 | 0.23 | 0.00 | 91 | 1009.5 |
| 20260509110100 | 19 | 281 | 4.8 | 12.9 | 0.00 | 0.23 | 0.00 | 91 | 1009.3 |
| 20260509105604 | 19 | 271 | 6.4 | 12.9 | 0.00 | 0.33 | 0.00 | 91 | 1009.2 |
| 20260509105100 | 19 | 287 | 4.8 | 9.7 | 0.00 | 0.33 | 0.00 | 91 | 1009.2 |
| 20260509104601 | 19 | 293 | 3.2 | 9.7 | 0.00 | 0.33 | 0.00 | 91 | 1009.1 |
| 20260509104100 | 19 | 285 | 4.8 | 11.3 | 0.00 | 0.33 | 0.00 | 91 | 1009.0 |
| 20260509103559 | 19 | 290 | 6.4 | 11.3 | 0.00 | 0.33 | 0.00 | 91 | 1008.9 |
| 20260509103059 | 19 | 295 | 6.4 | 9.7 | 0.00 | 0.33 | 0.00 | 90 | 1008.8 |
| 20260509102559 | 20 | 295 | 3.2 | 4.8 | 0.00 | 0.33 | 0.00 | 90 | 1008.7 |
| 20260509102100 | 20 | 0 | 0.0 | 0.0 | 0.00 | 0.33 | 0.00 | 90 | 1008.7 |
| 20260509101605 | 20 | 0 | 0.0 | 0.0 | 0.00 | 0.33 | 0.00 | 89 | 1008.6 |
| 20260509101059 | 20 | 0 | 0.0 | 0.0 | 0.00 | 0.33 | 0.00 | 90 | 1008.6 |
| 20260509100556 | 20 | 0 | 0.0 | 0.0 | 0.00 | 0.33 | 0.00 | 90 | 1008.7 |
| 20260509100059 | 20 | 0 | 0.0 | 1.6 | 0.00 | 0.33 | 0.00 | 89 | 1008.6 |
| 20260509095559 | 20 | 0 | 0.0 | 3.2 | 0.00 | 0.36 | 0.00 | 89 | 1008.4 |
| 20260509095059 | 20 | 0 | 0.0 | 3.2 | 0.00 | 0.36 | 0.00 | 89 | 1008.3 |
| 20260509094558 | 20 | 122 | 0.0 | 8.0 | 0.00 | 0.36 | 0.00 | 89 | 1008.3 |
| 20260509094059 | 20 | 96 | 1.6 | 8.0 | 0.00 | 0.36 | 0.00 | 89 | 1008.2 |
| 20260509093603 | 20 | 54 | 3.2 | 8.0 | 0.00 | 0.36 | 0.00 | 88 | 1008.0 |
| 20260509093100 | 20 | 41 | 3.2 | 12.9 | 0.00 | 0.36 | 0.00 | 88 | 1007.9 |
| 20260509092602 | 20 | 70 | 4.8 | 12.9 | 0.00 | 0.36 | 0.00 | 88 | 1007.8 |
| 20260509092059 | 20 | 39 | 8.0 | 16.1 | 0.00 | 0.36 | 0.00 | 88 | 1007.6 |
| 20260509091600 | 21 | 67 | 4.8 | 17.7 | 0.00 | 0.36 | 0.00 | 87 | 1007.5 |
| 20260509091059 | 21 | 76 | 9.7 | 17.7 | 0.00 | 0.36 | 0.00 | 87 | 1007.8 |
| 20260509090600 | 21 | 39 | 6.4 | 9.7 | 0.00 | 0.36 | 0.00 | 86 | 1007.8 |
| 20260509090057 | 21 | 34 | 3.2 | 6.4 | 0.00 | 0.36 | 0.00 | 85 | 1007.8 |
| 20260509085559 | 21 | 39 | 3.2 | 6.4 | 0.00 | 0.36 | 0.00 | 85 | 1007.6 |
| 20260509085102 | 21 | 39 | 3.2 | 6.4 | 0.00 | 0.36 | 0.00 | 85 | 1007.5 |
| 20260509084605 | 21 | 11 | 3.2 | 12.9 | 0.00 | 0.36 | 0.00 | 85 | 1007.4 |
| 20260509084059 | 21 | 8 | 3.2 | 14.5 | 0.00 | 0.36 | 0.00 | 84 | 1007.1 |
| 20260509083559 | 21 | 5 | 6.4 | 17.7 | 0.00 | 0.36 | 0.00 | 84 | 1007.1 |
| 20260509083100 | 21 | 307 | 9.7 | 17.7 | 0.00 | 0.36 | 0.00 | 84 | 1007.0 |
| 20260509082600 | 21 | 257 | 6.4 | 11.3 | 0.00 | 0.36 | 0.00 | 84 | 1006.5 |
| 20260509082100 | 21 | 146 | 4.8 | 14.5 | 0.00 | 0.36 | 0.00 | 84 | 1006.0 |
| 20260509081601 | 21 | 185 | 6.4 | 14.5 | 0.00 | 0.36 | 0.00 | 84 | 1005.9 |
| 20260509081100 | 21 | 181 | 1.6 | 19.3 | 0.00 | 0.36 | 0.00 | 86 | 1006.0 |
| 20260509080559 | 21 | 193 | 6.4 | 19.3 | 0.00 | 0.36 | 0.00 | 86 | 1005.9 |
| 20260509080059 | 21 | 245 | 11.3 | 19.3 | 0.00 | 0.36 | 0.00 | 87 | 1006.1 |
| 20260509075600 | 21 | 105 | 11.3 | 19.3 | 0.00 | 0.36 | 0.00 | 87 | 1006.4 |
| 20260509075101 | 21 | 243 | 11.3 | 25.7 | 0.00 | 0.36 | 0.00 | 87 | 1006.6 |
| 20260509074607 | 21 | 174 | 11.3 | 25.7 | 0.00 | 0.36 | 0.00 | 87 | 1007.0 |
| 20260509074100 | 21 | 173 | 11.3 | 22.5 | 0.00 | 0.36 | 0.00 | 87 | 1007.3 |
| 20260509073600 | 21 | 209 | 12.9 | 24.1 | 0.00 | 0.36 | 0.00 | 87 | 1007.7 |
| 20260509073102 | 21 | 170 | 12.9 | 24.1 | 0.00 | 0.36 | 0.00 | 87 | 1008.0 |
| 20260509072601 | 21 | 152 | 9.7 | 24.1 | 0.00 | 0.36 | 0.00 | 88 | 1008.4 |
| 20260509072059 | 21 | 207 | 9.7 | 22.5 | 0.00 | 0.36 | 0.00 | 88 | 1008.7 |
| 20260509071608 | 21 | 239 | 12.9 | 22.5 | 0.00 | 0.36 | 0.00 | 88 | 1008.6 |
| 20260509071101 | 21 | 223 | 12.9 | 22.5 | 0.00 | 0.36 | 0.00 | 88 | 1008.7 |
| 20260509070600 | 20 | 211 | 8.0 | 19.3 | 0.00 | 0.36 | 0.00 | 88 | 1008.9 |
| 20260509070101 | 20 | 198 | 8.0 | 19.3 | 0.00 | 0.36 | 0.00 | 89 | 1009.1 |
| 20260509065604 | 20 | 218 | 9.7 | 17.7 | 0.00 | 0.36 | 0.00 | 89 | 1009.3 |
| 20260509065100 | 20 | 211 | 4.8 | 17.7 | 0.00 | 0.36 | 0.00 | 89 | 1009.5 |
| 20260509064618 | 20 | 190 | 8.0 | 17.7 | 0.00 | 0.36 | 0.00 | 90 | 1009.4 |
| 20260509064101 | 20 | 198 | 6.4 | 12.9 | 0.00 | 0.36 | 0.00 | 90 | 1009.5 |
| 20260509063600 | 20 | 224 | 4.8 | 9.7 | 0.00 | 0.36 | 0.00 | 90 | 1009.8 |
| 20260509063101 | 20 | 241 | 1.6 | 6.4 | 0.00 | 0.36 | 0.00 | 90 | 1010.2 |
| 20260509062600 | 19 | 158 | 1.6 | 9.7 | 0.00 | 0.36 | 0.00 | 90 | 1010.4 |
| 20260509062100 | 19 | 241 | 3.2 | 9.7 | 0.00 | 0.36 | 0.00 | 90 | 1010.5 |
| 20260509061623 | 19 | 266 | 3.2 | 9.7 | 0.00 | 0.36 | 0.00 | 90 | 1010.4 |
| 20260509061100 | 19 | 238 | 3.2 | 6.4 | 0.00 | 0.36 | 0.00 | 89 | 1010.4 |
| 20260509060600 | 19 | 209 | 1.6 | 6.4 | 0.00 | 0.36 | 0.00 | 89 | 1010.4 |
| 20260509055601 | 19 | 0 | 1.6 | 3.2 | 0.00 | 0.36 | 0.00 | 89 | 1010.4 |
| 20260509055100 | 19 | 242 | 0.0 | 6.4 | 0.00 | 0.36 | 0.00 | 89 | 1010.4 |
| 20260509054601 | 20 | 0 | 1.6 | 6.4 | 0.00 | 0.36 | 0.00 | 88 | 1010.4 |
| 20260509054101 | 20 | 208 | 3.2 | 4.8 | 0.00 | 0.36 | 0.00 | 88 | 1010.0 |
| 20260509053613 | 20 | 203 | 0.0 | 6.4 | 0.00 | 0.36 | 0.00 | 88 | 1010.3 |
| 20260509053102 | 20 | 216 | 1.6 | 6.4 | 0.00 | 0.36 | 0.00 | 88 | 1010.3 |
| 20260509052603 | 20 | 203 | 3.2 | 6.4 | 0.00 | 0.36 | 0.00 | 87 | 1010.1 |
| 20260509052103 | 20 | 203 | 3.2 | 6.4 | 0.00 | 0.36 | 0.00 | 87 | 1010.3 |
| 20260509051559 | 20 | 163 | 0.0 | 3.2 | 0.00 | 0.36 | 0.00 | 86 | 1010.7 |
| 20260509051105 | 21 | 338 | 0.0 | 4.8 | 0.00 | 0.36 | 0.00 | 86 | 1011.0 |
| 20260509050602 | 21 | 219 | 0.0 | 14.5 | 0.00 | 0.36 | 0.00 | 86 | 1010.9 |
| 20260509050108 | 21 | 290 | 3.2 | 14.5 | 0.00 | 0.36 | 0.00 | 86 | 1011.3 |
| 20260509045601 | 21 | 310 | 8.0 | 17.7 | 0.00 | 0.36 | 0.36 | 86 | 1011.6 |
| 20260509045101 | 20 | 304 | 9.7 | 19.3 | 0.00 | 0.36 | 0.36 | 87 | 1011.6 |
| 20260509044601 | 20 | 313 | 12.9 | 19.3 | 0.00 | 0.36 | 0.36 | 87 | 1011.6 |
| 20260509044101 | 20 | 316 | 11.3 | 16.1 | 0.00 | 0.36 | 0.36 | 87 | 1011.5 |
| 20260509043600 | 20 | 315 | 0.0 | 3.2 | 0.00 | 0.36 | 0.36 | 86 | 1010.6 |
| 20260509043106 | 20 | 0 | 0.0 | 0.0 | 0.00 | 0.36 | 0.36 | 86 | 1010.0 |
| 20260509042600 | 20 | 0 | 0.0 | 1.6 | 0.00 | 0.36 | 0.36 | 86 | 1010.1 |
| 20260509042101 | 21 | 0 | 0.0 | 3.2 | 0.00 | 0.36 | 0.36 | 86 | 1010.2 |
| 20260509041602 | 21 | 75 | 1.6 | 3.2 | 0.00 | 0.36 | 0.36 | 86 | 1010.3 |
| 20260509041101 | 21 | 67 | 1.6 | 3.2 | 0.00 | 0.36 | 0.36 | 86 | 1010.2 |
| 20260509040600 | 21 | 135 | 0.0 | 1.6 | 0.00 | 0.36 | 0.36 | 85 | 1009.9 |
| 20260509040100 | 21 | 0 | 0.0 | 4.8 | 0.00 | 0.36 | 0.36 | 85 | 1009.7 |
| 20260509035600 | 21 | 148 | 1.6 | 4.8 | 0.00 | 0.36 | 0.36 | 85 | 1009.4 |
| 20260509035100 | 21 | 166 | 1.6 | 4.8 | 0.00 | 0.36 | 0.36 | 85 | 1009.3 |
| 20260509034601 | 21 | 142 | 1.6 | 6.4 | 0.00 | 0.36 | 0.36 | 85 | 1009.3 |
| 20260509034101 | 21 | 162 | 1.6 | 8.0 | 0.00 | 0.36 | 0.36 | 84 | 1009.3 |
| 20260509033602 | 21 | 190 | 3.2 | 8.0 | 0.00 | 0.36 | 0.36 | 84 | 1009.2 |
| 20260509033100 | 21 | 194 | 1.6 | 8.0 | 0.00 | 0.36 | 0.36 | 84 | 1009.2 |
| 20260509032601 | 21 | 143 | 3.2 | 8.0 | 0.00 | 0.36 | 0.36 | 84 | 1009.2 |
| 20260509032100 | 21 | 172 | 3.2 | 8.0 | 0.00 | 0.36 | 0.36 | 84 | 1009.3 |
| 20260509031601 | 21 | 223 | 3.2 | 9.7 | 0.00 | 0.36 | 0.36 | 84 | 1009.5 |
| 20260509031101 | 21 | 172 | 4.8 | 9.7 | 0.00 | 0.36 | 0.36 | 84 | 1010.2 |
| 20260509030559 | 21 | 18 | 4.8 | 9.7 | 0.00 | 0.36 | 0.36 | 85 | 1010.5 |
| 20260509030059 | 21 | 11 | 3.2 | 4.8 | 0.00 | 0.36 | 0.36 | 85 | 1010.4 |
| 20260509025601 | 21 | 332 | 3.2 | 4.8 | 0.00 | 0.36 | 0.36 | 85 | 1010.2 |
| 20260509025059 | 21 | 49 | 3.2 | 6.4 | 0.00 | 0.36 | 0.36 | 85 | 1009.8 |
| 20260509024559 | 21 | 32 | 3.2 | 6.4 | 0.00 | 0.36 | 0.36 | 85 | 1009.5 |
| 20260509024100 | 21 | 19 | 1.6 | 4.8 | 0.00 | 0.36 | 0.36 | 85 | 1009.3 |
| 20260509023559 | 21 | 56 | 1.6 | 4.8 | 0.00 | 0.36 | 0.36 | 85 | 1009.1 |
| 20260509023057 | 21 | 0 | 0.0 | 6.4 | 0.00 | 0.36 | 0.36 | 85 | 1008.9 |
| 20260509022600 | 21 | 115 | 0.0 | 8.0 | 0.00 | 0.36 | 0.36 | 84 | 1008.7 |
| 20260509022103 | 21 | 194 | 3.2 | 8.0 | 0.00 | 0.36 | 0.36 | 84 | 1008.5 |
| 20260509021559 | 21 | 115 | 1.6 | 6.4 | 0.00 | 0.36 | 0.36 | 84 | 1008.3 |
| 20260509021101 | 21 | 166 | 0.0 | 8.0 | 0.00 | 0.36 | 0.36 | 84 | 1008.2 |
| 20260509020559 | 21 | 122 | 1.6 | 8.0 | 0.00 | 0.36 | 0.36 | 84 | 1008.0 |
| 20260509020058 | 21 | 146 | 3.2 | 6.4 | 0.00 | 0.36 | 0.36 | 83 | 1007.8 |
| 20260509015559 | 21 | 144 | 3.2 | 6.4 | 0.00 | 0.36 | 0.36 | 83 | 1007.8 |
| 20260509015101 | 21 | 131 | 1.6 | 8.0 | 0.00 | 0.36 | 0.36 | 82 | 1008.0 |
| 20260509014559 | 21 | 172 | 0.0 | 8.0 | 0.00 | 0.36 | 0.36 | 82 | 1007.9 |
| 20260509014100 | 21 | 162 | 3.2 | 8.0 | 0.00 | 0.36 | 0.36 | 82 | 1007.8 |
| 20260509013600 | 21 | 188 | 1.6 | 6.4 | 0.00 | 0.36 | 0.36 | 81 | 1007.8 |
| 20260509013058 | 22 | 130 | 1.6 | 6.4 | 0.00 | 0.36 | 0.36 | 81 | 1007.7 |
| 20260509012559 | 22 | 165 | 3.2 | 6.4 | 0.00 | 0.36 | 0.36 | 80 | 1007.9 |
| 20260509012101 | 22 | 143 | 1.6 | 6.4 | 0.00 | 0.36 | 0.36 | 80 | 1008.2 |
| 20260509011601 | 22 | 139 | 1.6 | 9.7 | 0.00 | 0.36 | 0.36 | 79 | 1008.3 |
| 20260509011059 | 22 | 162 | 1.6 | 9.7 | 0.00 | 0.36 | 0.36 | 79 | 1008.3 |
| 20260509010559 | 22 | 157 | 3.2 | 9.7 | 0.00 | 0.36 | 0.36 | 79 | 1008.3 |
| 20260509010104 | 22 | 160 | 3.2 | 6.4 | 0.00 | 0.36 | 0.36 | 78 | 1008.3 |
| 20260509005603 | 22 | 157 | 3.2 | 11.3 | 0.00 | 0.36 | 0.36 | 78 | 1008.3 |
| 20260509005059 | 22 | 193 | 1.6 | 12.9 | 0.00 | 0.36 | 0.36 | 78 | 1008.3 |
| 20260509004621 | 22 | 196 | 6.4 | 12.9 | 0.00 | 0.36 | 0.36 | 77 | 1008.2 |
| 20260509004100 | 23 | 209 | 3.2 | 6.4 | 0.00 | 0.36 | 0.36 | 77 | 1008.1 |
| 20260509003604 | 23 | 157 | 3.2 | 8.0 | 0.00 | 0.36 | 0.36 | 77 | 1008.0 |
| 20260509003058 | 23 | 165 | 3.2 | 8.0 | 0.00 | 0.36 | 0.36 | 76 | 1008.0 |
| 20260509002559 | 23 | 155 | 3.2 | 8.0 | 0.00 | 0.36 | 0.36 | 76 | 1007.8 |
| 20260509002100 | 23 | 151 | 3.2 | 14.5 | 0.00 | 0.36 | 0.36 | 76 | 1007.8 |
| 20260509001559 | 23 | 137 | 3.2 | 14.5 | 0.00 | 0.36 | 0.36 | 75 | 1007.8 |
| 20260509001100 | 23 | 207 | 6.4 | 14.5 | 0.00 | 0.36 | 0.36 | 75 | 1007.6 |
| 20260509000559 | 23 | 158 | 8.0 | 14.5 | 0.00 | 0.36 | 0.36 | 74 | 1007.7 |
| 20260509000100 | 23 | 207 | 8.0 | 14.5 | 0.00 | 0.36 | 0.36 | 74 | 1007.8 |
| 20260508235600 | 24 | 141 | 6.4 | 16.1 | 0.00 | 0.36 | 0.36 | 73 | 1007.8 |
| 20260508235101 | 24 | 175 | 6.4 | 16.1 | 0.00 | 0.36 | 0.36 | 73 | 1007.8 |
| 20260508234605 | 24 | 222 | 8.0 | 16.1 | 0.00 | 0.36 | 0.36 | 73 | 1008.0 |
| 20260508234101 | 24 | 214 | 6.4 | 16.1 | 0.00 | 0.36 | 0.36 | 73 | 1008.0 |
| 20260508233600 | 24 | 160 | 6.4 | 16.1 | 0.00 | 0.36 | 0.36 | 72 | 1008.0 |
| 20260508233103 | 24 | 176 | 8.0 | 16.1 | 0.00 | 0.36 | 0.36 | 72 | 1008.0 |
| 20260508232559 | 24 | 170 | 6.4 | 16.1 | 0.00 | 0.36 | 0.36 | 72 | 1008.0 |
| 20260508232100 | 24 | 149 | 4.8 | 16.1 | 0.00 | 0.36 | 0.36 | 72 | 1008.1 |
| 20260508231559 | 24 | 217 | 6.4 | 16.1 | 0.00 | 0.36 | 0.36 | 71 | 1008.1 |
| 20260508231100 | 24 | 123 | 8.0 | 14.5 | 0.00 | 0.36 | 0.36 | 71 | 1008.0 |
| 20260508230600 | 25 | 171 | 6.4 | 12.9 | 0.00 | 0.36 | 0.36 | 70 | 1008.0 |
| 20260508230059 | 25 | 160 | 6.4 | 16.1 | 0.00 | 0.36 | 0.36 | 70 | 1008.1 |
| 20260508225559 | 25 | 175 | 6.4 | 16.1 | 0.00 | 0.36 | 0.36 | 70 | 1008.0 |
| 20260508225100 | 25 | 207 | 8.0 | 16.1 | 0.00 | 0.36 | 0.36 | 70 | 1008.1 |
| 20260508224559 | 25 | 207 | 6.4 | 14.5 | 0.00 | 0.36 | 0.36 | 69 | 1008.1 |
| 20260508224102 | 25 | 236 | 6.4 | 14.5 | 0.00 | 0.36 | 0.36 | 69 | 1008.1 |
| 20260508223600 | 25 | 236 | 4.8 | 14.5 | 0.00 | 0.36 | 0.36 | 70 | 1008.2 |
| 20260508223100 | 25 | 206 | 4.8 | 16.1 | 0.00 | 0.36 | 0.36 | 69 | 1008.3 |
| 20260508222559 | 25 | 111 | 4.8 | 16.1 | 0.00 | 0.36 | 0.36 | 69 | 1008.3 |
| 20260508222101 | 25 | 159 | 8.0 | 16.1 | 0.00 | 0.36 | 0.36 | 68 | 1008.3 |
| 20260508221558 | 25 | 210 | 9.7 | 14.5 | 0.00 | 0.36 | 0.36 | 69 | 1008.3 |
| 20260508221100 | 25 | 203 | 8.0 | 12.9 | 0.00 | 0.36 | 0.36 | 68 | 1008.3 |
| 20260508220559 | 25 | 183 | 4.8 | 12.9 | 0.00 | 0.36 | 0.36 | 68 | 1008.3 |
| 20260508220100 | 25 | 211 | 4.8 | 14.5 | 0.00 | 0.36 | 0.36 | 68 | 1008.3 |
| 20260508215559 | 25 | 145 | 4.8 | 14.5 | 0.00 | 0.36 | 0.36 | 70 | 1008.3 |
| 20260508215100 | 25 | 163 | 6.4 | 14.5 | 0.00 | 0.36 | 0.36 | 68 | 1008.3 |
| 20260508214607 | 25 | 224 | 6.4 | 14.5 | 0.00 | 0.36 | 0.36 | 69 | 1008.3 |
| 20260508214059 | 25 | 180 | 4.8 | 14.5 | 0.00 | 0.36 | 0.36 | 68 | 1008.3 |
| 20260508213559 | 25 | 131 | 6.4 | 20.9 | 0.00 | 0.36 | 0.36 | 70 | 1008.3 |
| 20260508213056 | 25 | 213 | 8.0 | 20.9 | 0.00 | 0.36 | 0.36 | 69 | 1008.2 |
| 20260508212559 | 25 | 135 | 6.4 | 16.1 | 0.00 | 0.36 | 0.36 | 69 | 1008.3 |
| 20260508212059 | 25 | 195 | 8.0 | 16.1 | 0.00 | 0.36 | 0.36 | 68 | 1008.4 |
| 20260508211557 | 25 | 193 | 6.4 | 14.5 | 0.00 | 0.36 | 0.36 | 68 | 1008.5 |
| 20260508211101 | 25 | 213 | 6.4 | 12.9 | 0.00 | 0.36 | 0.36 | 68 | 1008.5 |
| 20260508210604 | 25 | 184 | 6.4 | 12.9 | 0.00 | 0.36 | 0.36 | 69 | 1008.4 |
| 20260508210059 | 25 | 91 | 6.4 | 12.9 | 0.00 | 0.36 | 0.36 | 69 | 1008.4 |
| 20260508205600 | 25 | 197 | 4.8 | 12.9 | 0.00 | 0.36 | 0.36 | 68 | 1008.4 |
| 20260508205100 | 25 | 198 | 4.8 | 16.1 | 0.00 | 0.36 | 0.36 | 70 | 1008.6 |
| 20260508204600 | 25 | 169 | 4.8 | 17.7 | 0.00 | 0.36 | 0.36 | 70 | 1008.8 |
| 20260508204059 | 24 | 221 | 8.0 | 17.7 | 0.00 | 0.36 | 0.36 | 70 | 1009.1 |
| 20260508203601 | 23 | 176 | 8.0 | 17.7 | 0.00 | 0.36 | 0.36 | 72 | 1009.2 |
| 20260508203102 | 23 | 141 | 8.0 | 17.7 | 0.00 | 0.36 | 0.36 | 69 | 1009.7 |
| 20260508202601 | 23 | 225 | 6.4 | 16.1 | 0.00 | 0.36 | 0.36 | 71 | 1010.0 |
| 20260508202101 | 23 | 196 | 6.4 | 16.1 | 0.00 | 0.36 | 0.36 | 71 | 1010.2 |
| 20260508201558 | 23 | 170 | 9.7 | 14.5 | 0.00 | 0.36 | 0.36 | 71 | 1010.3 |
| 20260508201154 | 23 | 153 | 6.4 | 14.5 | 0.00 | 0.36 | 0.36 | 70 | 1010.3 |
| 20260508200600 | 24 | 229 | 6.4 | 16.1 | 0.00 | 0.36 | 0.36 | 70 | 1010.4 |
| 20260508200100 | 24 | 153 | 6.4 | 16.1 | 0.00 | 0.36 | 0.36 | 70 | 1010.4 |
| 20260508195600 | 24 | 274 | 9.7 | 16.1 | 0.00 | 0.36 | 0.36 | 68 | 1010.4 |
| 20260508195103 | 24 | 178 | 6.4 | 14.5 | 0.00 | 0.36 | 0.36 | 69 | 1010.4 |
| 20260508194559 | 25 | 229 | 4.8 | 14.5 | 0.00 | 0.36 | 0.36 | 70 | 1010.4 |
| 20260508194059 | 25 | 159 | 6.4 | 16.1 | 0.00 | 0.36 | 0.36 | 68 | 1010.4 |
| 20260508193601 | 25 | 199 | 6.4 | 16.1 | 0.00 | 0.36 | 0.36 | 70 | 1010.4 |
| 20260508193120 | 24 | 165 | 8.0 | 16.1 | 0.00 | 0.36 | 0.36 | 68 | 1010.4 |
| 20260508192600 | 25 | 226 | 8.0 | 16.1 | 0.00 | 0.36 | 0.36 | 67 | 1010.5 |
| 20260508192103 | 25 | 225 | 8.0 | 12.9 | 0.00 | 0.36 | 0.36 | 67 | 1010.4 |
| 20260508191603 | 25 | 151 | 4.8 | 16.1 | 0.00 | 0.36 | 0.36 | 69 | 1010.4 |
| 20260508191101 | 25 | 226 | 8.0 | 16.1 | 0.00 | 0.36 | 0.36 | 67 | 1010.5 |
| 20260508190601 | 25 | 188 | 6.4 | 16.1 | 0.00 | 0.36 | 0.36 | 68 | 1010.6 |
| 20260508190110 | 25 | 184 | 8.0 | 12.9 | 0.00 | 0.36 | 0.36 | 68 | 1010.6 |
| 20260508185603 | 25 | 177 | 6.4 | 12.9 | 0.00 | 0.36 | 0.36 | 68 | 1010.7 |
| 20260508185101 | 25 | 181 | 3.2 | 9.7 | 0.00 | 0.36 | 0.36 | 68 | 1010.7 |
| 20260508184607 | 25 | 168 | 4.8 | 9.7 | 0.00 | 0.36 | 0.36 | 71 | 1010.8 |
| 20260508184100 | 25 | 199 | 3.2 | 9.7 | 0.00 | 0.36 | 0.36 | 69 | 1010.8 |
| 20260508183600 | 24 | 144 | 4.8 | 14.5 | 0.00 | 0.36 | 0.36 | 70 | 1010.9 |
| 20260508183114 | 24 | 174 | 6.4 | 14.5 | 0.00 | 0.36 | 0.36 | 70 | 1011.0 |
| 20260508182600 | 24 | 198 | 6.4 | 12.9 | 0.00 | 0.36 | 0.36 | 69 | 1010.9 |
| 20260508182100 | 24 | 148 | 6.4 | 11.3 | 0.00 | 0.36 | 0.36 | 70 | 1011.0 |
| 20260508181603 | 24 | 172 | 4.8 | 12.9 | 0.00 | 0.36 | 0.36 | 70 | 1011.1 |
| 20260508181104 | 24 | 157 | 4.8 | 12.9 | 0.00 | 0.36 | 0.36 | 72 | 1011.2 |
| 20260508180601 | 24 | 208 | 6.4 | 11.3 | 0.00 | 0.36 | 0.36 | 71 | 1011.3 |
| 20260508180121 | 24 | 153 | 6.4 | 9.7 | 0.00 | 0.36 | 0.36 | 71 | 1011.5 |
| 20260508175601 | 23 | 131 | 4.8 | 17.7 | 0.00 | 0.36 | 0.36 | 69 | 1011.5 |
| 20260508175101 | 23 | 207 | 8.0 | 17.7 | 0.00 | 0.36 | 0.36 | 69 | 1011.6 |
| 20260508174614 | 24 | 179 | 1.6 | 11.3 | 0.00 | 0.36 | 0.36 | 72 | 1011.7 |
| 20260508174102 | 23 | 186 | 4.8 | 11.3 | 0.00 | 0.36 | 0.36 | 71 | 1011.8 |
| 20260508173601 | 23 | 160 | 1.6 | 11.3 | 0.00 | 0.36 | 0.36 | 71 | 1011.8 |
| 20260508173102 | 23 | 221 | 3.2 | 8.0 | 0.00 | 0.36 | 0.36 | 69 | 1011.9 |
| 20260508172600 | 23 | 214 | 3.2 | 8.0 | 0.00 | 0.36 | 0.36 | 70 | 1011.8 |
| 20260508172101 | 23 | 224 | 3.2 | 11.3 | 0.00 | 0.36 | 0.36 | 72 | 1011.8 |
| 20260508171607 | 22 | 109 | 4.8 | 12.9 | 0.00 | 0.36 | 0.36 | 73 | 1012.0 |
| 20260508171103 | 22 | 190 | 4.8 | 14.5 | 0.00 | 0.36 | 0.36 | 73 | 1012.0 |
| 20260508170600 | 22 | 142 | 6.4 | 16.1 | 0.00 | 0.36 | 0.36 | 74 | 1012.1 |
| 20260508170107 | 22 | 115 | 4.8 | 16.1 | 0.00 | 0.36 | 0.36 | 72 | 1012.2 |
| 20260508165600 | 22 | 167 | 3.2 | 11.3 | 0.00 | 0.36 | 0.36 | 73 | 1012.4 |
| 20260508165100 | 22 | 136 | 4.8 | 11.3 | 0.00 | 0.36 | 0.36 | 74 | 1012.5 |
| 20260508164600 | 21 | 216 | 4.8 | 8.0 | 0.00 | 0.36 | 0.36 | 76 | 1012.6 |
| 20260508164100 | 21 | 193 | 4.8 | 12.9 | 0.00 | 0.36 | 0.36 | 75 | 1012.8 |
| 20260508163603 | 21 | 221 | 6.4 | 12.9 | 0.00 | 0.36 | 0.36 | 74 | 1012.9 |
| 20260508163058 | 21 | 148 | 4.8 | 11.3 | 0.00 | 0.36 | 0.36 | 76 | 1013.0 |
| 20260508162600 | 21 | 211 | 4.8 | 11.3 | 0.00 | 0.36 | 0.36 | 76 | 1013.2 |
| 20260508162100 | 20 | 155 | 4.8 | 11.3 | 0.00 | 0.36 | 0.36 | 77 | 1013.2 |
| 20260508161607 | 20 | 157 | 6.4 | 9.7 | 0.00 | 0.36 | 0.36 | 76 | 1013.3 |
| 20260508161059 | 20 | 136 | 3.2 | 6.4 | 0.00 | 0.36 | 0.36 | 78 | 1013.3 |
| 20260508160601 | 20 | 210 | 1.6 | 4.8 | 0.00 | 0.36 | 0.36 | 80 | 1013.4 |
| 20260508160059 | 20 | 231 | 0.0 | 4.8 | 0.03 | 0.36 | 0.36 | 81 | 1013.4 |
| 20260508155559 | 19 | 171 | 1.6 | 6.4 | 0.15 | 0.36 | 0.36 | 83 | 1013.5 |
| 20260508155100 | 19 | 181 | 1.6 | 8.0 | 0.23 | 0.36 | 0.36 | 83 | 1013.5 |
| 20260508154559 | 18 | 217 | 3.2 | 8.0 | 0.23 | 0.36 | 0.36 | 84 | 1013.6 |
| 20260508154059 | 18 | 203 | 1.6 | 4.8 | 0.23 | 0.36 | 0.36 | 85 | 1013.6 |
| 20260508153600 | 18 | 182 | 0.0 | 1.6 | 0.23 | 0.36 | 0.36 | 86 | 1013.6 |
| 20260508153059 | 18 | 168 | 0.0 | 1.6 | 0.23 | 0.36 | 0.36 | 86 | 1013.8 |
| 20260508152559 | 17 | 153 | 0.0 | 3.2 | 0.23 | 0.36 | 0.36 | 86 | 1013.7 |
| 20260508152059 | 17 | 0 | 0.0 | 3.2 | 0.23 | 0.36 | 0.36 | 87 | 1013.8 |
| 20260508151602 | 17 | 0 | 0.0 | 3.2 | 0.23 | 0.36 | 0.36 | 87 | 1013.8 |
| 20260508151100 | 17 | 0 | 0.0 | 3.2 | 0.23 | 0.36 | 0.36 | 86 | 1013.7 |
| 20260508150559 | 17 | 215 | 0.0 | 3.2 | 0.23 | 0.36 | 0.36 | 85 | 1013.9 |
| 20260508150056 | 17 | 212 | 1.6 | 9.7 | 0.20 | 0.33 | 0.33 | 84 | 1013.9 |
| 20260508145558 | 17 | 185 | 4.8 | 9.7 | 0.08 | 0.20 | 0.20 | 82 | 1013.7 |
| 20260508145100 | 18 | 158 | 3.2 | 11.3 | 0.00 | 0.13 | 0.13 | 82 | 1014.3 |
| 20260508144609 | 18 | 183 | 4.8 | 11.3 | 0.00 | 0.13 | 0.13 | 80 | 1014.1 |
| 20260508144101 | 18 | 190 | 4.8 | 9.7 | 0.00 | 0.13 | 0.13 | 80 | 1014.0 |
| 20260508143600 | 18 | 158 | 3.2 | 6.4 | 0.00 | 0.13 | 0.13 | 81 | 1014.0 |
| 20260508143102 | 18 | 131 | 1.6 | 4.8 | 0.00 | 0.13 | 0.13 | 81 | 1014.1 |
| 20260508142559 | 18 | 193 | 1.6 | 6.4 | 0.00 | 0.13 | 0.13 | 83 | 1014.0 |
| 20260508142100 | 18 | 212 | 0.0 | 6.4 | 0.00 | 0.13 | 0.13 | 83 | 1014.1 |
| 20260508141607 | 18 | 0 | 1.6 | 6.4 | 0.00 | 0.13 | 0.13 | 83 | 1014.3 |
| 20260508141059 | 18 | 189 | 0.0 | 6.4 | 0.00 | 0.13 | 0.13 | 83 | 1014.1 |
| 20260508140559 | 17 | 204 | 0.0 | 6.4 | 0.00 | 0.13 | 0.13 | 82 | 1014.5 |
| 20260508140057 | 17 | 0 | 3.2 | 6.4 | 0.00 | 0.13 | 0.13 | 82 | 1014.7 |
| 20260508135600 | 18 | 0 | 1.6 | 8.0 | 0.00 | 0.13 | 0.13 | 82 | 1014.4 |